Location: Goudex
(43.3760°N, 0.9543°E)
Time: 22:33:24
(UTC+00:00)

Cosmos 2100 Rocket - Pass Details

Date: 20 November 2019
Orbit: 955 x 1001 km, 82.9° (Epoch: 05 December)

Event Time Altitude Azimuth Distance (km) Brightness Sun altitude
Rises 04:11:53 0° 176° (S) 3,646 7.0 -29.5°
Reaches altitude 10° 04:14:24 10° 173° (S) 2,697 6.4 -29.0°
Maximum altitude 04:20:29 65° 93° (E) 1,053 4.3 -27.9°
Drops below altitude 10° 04:26:33 10° 14° (NNE) 2,696 6.4 -26.8°
Sets 04:29:04 0° 11° (NNE) 3,645 7.1 -26.3°
